Flag for Germany Weather past 2 weeks in Falkensee, Brandenburg, Germany

Now
63 °F

Clear.


Feels Like: 63 °F
Forecast: 55 / 67 °F
Wind: 7 mph from Southwest

Location: Berlin-Tegel

Current Time: Aug 22, 2014 at 9:37:51 PM

Latest Report: Aug 22, 2014 at 9:20 PM


Visibility: 10 mi

Pressure: 29.86 "Hg

Humidity: 42%

Dew point: 39 °F

Location of FalkenseeLocation

Historic Weather in Falkensee — Graph

°F

Falkensee temperature yesterday

Maximum temperature yesterday: 66 °F (at 3:50 PM)
Minimum temperature yesterday: 48 °F (at 2:20 AM)
Average temperature yesterday: 56 °F

Past Weeks' High & Low Weather Summary

 TemperatureHumidityPressure
High82 °F (Aug 9, 11:20 AM)100% (Aug 8, 6:50 AM)30.01 "Hg (Aug 8, 6:50 AM)
Low48 °F (Aug 21, 2:20 AM)30% (Aug 22, 6:20 PM)29.59 "Hg (Aug 18, 2:50 PM)
Average64 °F64%29.85 "Hg
* Reported Aug 7 8:20 PM — Aug 22 8:20 PM, Falkensee, Weather by CustomWeather, © 2014

Note: Actual official high and low records may vary slightly from our data, if they occured in-between our weather recording intervals... More about our weather records

Advertising

Falkensee weather history for previous 24 hours

 ConditionsComfort  
Time TempWeatherWind HumidityBarometerVisibility
8:20 PM
Aug 22
64 °FSunny.7 mph37%29.86 "Hg10 mi
7:50 PM64 °FSunny.8 mph37%29.86 "Hg10 mi
7:20 PM66 °FSunny.8 mph35%29.86 "Hg10 mi
6:50 PM68 °FSunny.9 mph30%29.86 "Hg10 mi
6:20 PM68 °FSunny.14 mph30%29.86 "Hg10 mi
5:50 PM68 °FSunny.7 mph35%29.86 "Hg10 mi
5:20 PM68 °FSunny.8 mph35%29.89 "Hg10 mi
4:50 PM68 °FSunny.9 mph35%29.89 "Hg10 mi
4:20 PM68 °FSunny.9 mph33%29.89 "Hg10 mi
3:50 PM68 °FSunny.12 mph35%29.89 "Hg10 mi
3:20 PM68 °FSunny.9 mph35%29.89 "Hg10 mi
2:50 PM66 °FSunny.8 mph43%29.92 "Hg10 mi
2:20 PM68 °FSunny.7 mph43%29.92 "Hg10 mi
1:50 PM66 °FSunny.9 mph40%29.92 "Hg10 mi
1:20 PM66 °FSunny.9 mph43%29.92 "Hg10 mi
12:50 PM66 °FSunny.7 mph43%29.92 "Hg10 mi
12:20 PM66 °FBroken clouds.6 mph46%29.92 "HgN/A
11:50 AM64 °FPartly sunny.8 mph49%29.95 "HgN/A
11:20 AM63 °FPartly sunny.7 mph56%29.95 "HgN/A
10:50 AM63 °FSunny.6 mph52%29.95 "Hg10 mi
10:20 AM61 °FSunny.6 mph59%29.95 "Hg10 mi
9:50 AM59 °FSunny.6 mph63%29.95 "Hg10 mi
9:20 AM57 °FSunny.6 mph63%29.95 "Hg10 mi
8:50 AM57 °FSunny.7 mph63%29.95 "Hg10 mi
8:20 AM57 °FSunny.6 mph59%29.95 "Hg10 mi
7:50 AM57 °FSunny.6 mph63%29.92 "Hg10 mi
7:20 AM55 °FSunny.3 mph67%29.95 "Hg10 mi
6:50 AM54 °FClear.2 mph72%29.95 "Hg10 mi
6:20 AM54 °FClear.3 mph72%29.95 "Hg10 mi
5:50 AM52 °FClear.2 mph77%29.95 "Hg10 mi
5:20 AM54 °FClear.3 mph72%29.95 "Hg10 mi
4:20 AM54 °FClear.2 mph67%29.95 "Hg10 mi
3:50 AM52 °FClear.2 mph72%29.98 "Hg10 mi
3:20 AM52 °FClear.2 mph72%29.98 "Hg10 mi
2:50 AM52 °FClear.2 mph72%29.98 "Hg10 mi
2:20 AM52 °FClear.1 mph77%29.98 "Hg10 mi
1:50 AM52 °FClear.1 mph77%29.98 "Hg10 mi
1:20 AM52 °FClear.1 mph72%29.98 "Hg10 mi
12:50 AM54 °FClear.1 mph72%29.98 "Hg10 mi
12:20 AM54 °FClear.2 mph72%29.98 "Hg10 mi
11:50 PM
Aug 21
54 °FClear.1 mph72%29.98 "Hg10 mi
11:20 PM55 °FClear.1 mph67%29.98 "Hg10 mi
10:50 PM55 °FClear.2 mph63%29.98 "Hg10 mi
10:20 PM55 °FClear.2 mph63%29.98 "Hg10 mi
9:50 PM57 °FClear.2 mph59%29.98 "Hg10 mi
9:20 PM57 °FClear.2 mph55%29.98 "Hg10 mi
Weather by CustomWeather, © 2014

See weather overviewHow to use our weather pages